Waarnemingen

Advertentie
Mijn weer
Perpignan, Frankrijk (7747): temperatuur & dauwpunt: 20.05.2018 23:00:00 - 26.05.2018 23:00:00 (CEST)Perpignan, Frankrijk (7747): temperatuur 5cm: 20.05.2018 23:00:00 - 26.05.2018 23:00:00 (CEST)Perpignan, Frankrijk (7747): temperatuur -20cm & temperatuur -100cm: 20.05.2018 23:00:00 - 26.05.2018 23:00:00 (CEST)Perpignan, Frankrijk (7747): windsnelheid & windstoten: 20.05.2018 23:00:00 - 26.05.2018 23:00:00 (CEST)Perpignan, Frankrijk (7747): windrichting: 20.05.2018 23:00:00 - 26.05.2018 23:00:00 (CEST)Perpignan, Frankrijk (7747): luchtdruk: 20.05.2018 23:00:00 - 26.05.2018 23:00:00 (CEST)Perpignan, Frankrijk (7747): zicht: 20.05.2018 23:00:00 - 26.05.2018 23:00:00 (CEST)Perpignan, Frankrijk (7747): neerslag: 20.05.2018 23:00:00 - 26.05.2018 23:00:00 (CEST)
Datum & Tijd tt [°C] td [°C] tt 5cm [°C] tt -20cm [°C] tt -100cm [°C] ff [km/u] ff [kn] fx [km/u] fx [kn] dd ppp [hPa] vv [km] rr [mm]
26.05.2018 23:00:00 18,8 17,1 17,7 23,6 19,3 18 10 24 13 OZO 1016,2 11 0,0
26.05.2018 22:00:00 19,4 16,1 18,5 23,8 19,4 14 8 22 12 OZO 1015,5 20 0,0
26.05.2018 21:00:00 20,0 16,2 19,6 23,8 19,4 14 7 22 12 O 1014,9 22 0,0
26.05.2018 20:00:00 21,4 15,0 21,0 23,8 19,4 12 7 29 16 OZO 1014,9 37 0,0
26.05.2018 19:00:00 22,9 16,2 24,4 23,6 19,4 18 10 44 24 O 1014,8 20 0,0
26.05.2018 18:00:00 22,9 15,5 26,6 23,4 19,4 27 14 37 20 O 1015,1 34 0,0
26.05.2018 17:00:00 25,0 12,2 28,5 23,1 19,4 27 15 46 25 OZO 1015,2 60 0,0
26.05.2018 16:00:00 25,0 8,9 28,1 22,7 19,4 30 16 51 28 OZO 1015,4 59 0,0
26.05.2018 15:00:00 25,3 10,3 30,8 22,3 19,3 33 18 54 29 ZO 1015,4 49 0,0
26.05.2018 14:00:00 25,4 10,8 31,9 21,9 19,3 30 16 48 26 ZO 1015,9 59 0,0
26.05.2018 13:00:00 25,0 12,9 28,0 21,7 19,4 24 13 41 22 OZO 1016,6 60 0,0
26.05.2018 12:00:00 23,2 15,3 25,7 21,6 19,3 16 9 32 18 ZO 1016,9 38 0,0
26.05.2018 11:00:00 22,4 14,5 22,3 21,5 19,3 20 11 30 16 ZO 1016,7 57 0,0
26.05.2018 10:00:00 20,5 15,7 20,8 21,6 19,4 13 7 24 13 ZO 1016,9 51 0,0
26.05.2018 09:00:00 19,3 18,0 18,4 21,6 19,2 9 5 19 10 O 1016,9 17 0,0
26.05.2018 08:00:00 18,3 17,0 16,7 21,8 19,3 10 5 21 11 O 1016,3 17 0,0
26.05.2018 07:00:00 17,4 15,6 16,4 21,9 19,3 8 4 24 13 Z 1016,0 20 1,0
26.05.2018 06:00:00 17,5 15,5 16,5 22,1 19,3 7 4 39 21 Z 1015,8 33 0,2
26.05.2018 05:00:00 17,6 16,1 16,4 22,2 19,2 13 7 17 9 N 1016,0 20 0,4
26.05.2018 04:00:00 18,3 14,2 16,6 22,4 19,2 7 4 24 13 O 1016,3 49 0,0
26.05.2018 03:00:00 17,7 15,5 16,1 22,5 19,2 11 6 18 10 N 1014,7 33 0,0
26.05.2018 02:00:00 17,5 14,6 15,4 22,7 19,2 5 3 14 7 NO 1015,0 34 0,0
26.05.2018 01:00:00 17,9 14,6 16,0 22,9 19,2 6 3 14 8 O 1015,2 33 0,0
26.05.2018 00:00:00 18,4 14,5 16,0 23,0 19,2 10 5 14 8 OZO 1015,2 39 0,0
25.05.2018 23:00:00 18,8 13,0 17,1 23,2 19,2 8 4 18 10 O 1015,1 57 0,0
25.05.2018 22:00:00 19,4 11,7 17,7 23,3 19,2 8 4 18 10 OZO 1014,7 60 0,0
25.05.2018 21:00:00 19,9 12,4 18,6 23,3 19,2 10 5 23 12 ZO 1014,5 60 0,0
25.05.2018 20:00:00 20,5 13,7 20,7 23,3 19,2 18 10 34 18 ZO 1014,1 51 0,0
25.05.2018 19:00:00 21,7 12,8 22,4 23,2 19,1 21 11 41 22 OZO 1014,0 34 0,0
25.05.2018 18:00:00 23,5 11,9 24,6 23,0 19,1 24 13 43 23 ZO 1014,2 60 0,0
25.05.2018 17:00:00 22,5 12,4 24,4 22,8 19,1 27 15 45 24 ZO 1014,5 37 0,0
25.05.2018 16:00:00 23,7 11,7 26,9 22,6 19,1 17 9 29 16 OZO 1015,3 40 0,0
25.05.2018 15:00:00 21,6 13,8 21,0 22,5 19,1 12 6 34 18 ONO 1015,9 48 0,0
25.05.2018 14:00:00 20,3 13,7 21,5 22,4 19,1 18 10 26 14 ONO 1016,0 51 0,0
25.05.2018 13:00:00 21,6 14,5 25,5 22,2 19,1 12 7 26 14 ONO 1016,8 33 0,0
25.05.2018 12:00:00 21,0 15,8 25,5 22,0 19,1 14 8 21 11 NO 1016,3 33 0,0
25.05.2018 11:00:00 20,4 15,0 26,1 21,9 19,0 15 8 26 14 O 1016,4 25 0,0
25.05.2018 10:00:00 20,7 15,7 22,9 22,0 19,0 11 6 18 10 OZO 1016,3 20 0,0
25.05.2018 09:00:00 19,4 15,7 20,1 22,1 19,0 7 4 13 7 O 1016,2 19 0,0
25.05.2018 08:00:00 18,0 16,3 17,7 22,2 19,0 5 3 8 5 OZO 1016,2 11 0,0
25.05.2018 07:00:00 17,3 16,0 14,2 22,3 19,0 2 1 6 4 O 1015,9 7 0,0
25.05.2018 06:00:00 16,9 15,1 14,6 22,5 18,9 5 3 8 4 NO 1015,6 8 0,0
25.05.2018 05:00:00 16,7 15,2 13,9 22,7 19,0 0 0 4 2 N 1015,8 9 0,0
25.05.2018 04:00:00 17,3 15,3 15,0 22,9 19,0 0 0 4 2 N 1016,2 8 0,0
25.05.2018 03:00:00 18,0 15,6 18,1 23,0 18,9 0 0 8 4 N 1016,5 10 0,0
25.05.2018 02:00:00 18,2 16,0 17,6 23,2 18,9 0 0 5 3 N 1016,7 12 0,0
25.05.2018 01:00:00 17,9 15,9 17,2 23,4 19,0 4 2 8 5 W 1016,9 10 0,0
25.05.2018 00:00:00 18,2 16,0 16,2 23,5 18,9 3 2 6 3 NNO 1017,2 13 0,0
24.05.2018 23:00:00 18,3 16,1 16,7 23,7 18,9 3 2 10 5 ONO 1017,4 13 0,0
24.05.2018 22:00:00 18,3 15,9 16,8 23,9 18,9 7 4 12 6 NNO 1016,9 11 0,0
24.05.2018 21:00:00 18,8 16,0 18,4 23,9 18,9 10 6 16 9 O 1016,7 12 0,0
24.05.2018 20:00:00 19,7 16,0 20,8 23,9 18,9 11 6 21 12 ONO 1016,6 15 0,0
24.05.2018 19:00:00 20,4 16,2 22,3 23,7 18,9 13 7 26 14 ONO 1016,3 14 0,0
24.05.2018 18:00:00 21,2 15,9 23,4 23,4 18,8 15 8 24 13 ONO 1016,2 15 0,0
24.05.2018 17:00:00 23,2 16,5 29,4 23,0 18,8 15 8 30 16 O 1016,0 19 0,0
24.05.2018 16:00:00 23,9 16,7 32,7 22,5 18,8 12 7 26 14 O 1016,2 16 0,0
24.05.2018 15:00:00 23,4 16,0 33,6 22,1 18,8 15 8 29 16 NO 1016,4 14 0,0
24.05.2018 14:00:00 22,4 16,0 29,1 21,8 18,8 17 9 28 15 ONO 1017,0 13 0,0
24.05.2018 13:00:00 21,4 15,9 27,3 21,5 18,8 16 9 25 13 ONO 1017,5 13 0,0
24.05.2018 12:00:00 21,8 16,1 26,0 21,4 18,8 14 7 27 15 O 1017,3 15 0,0
24.05.2018 11:00:00 20,5 16,1 23,0 21,4 18,8 12 7 20 11 ONO 1017,4 13 0,0
24.05.2018 10:00:00 20,1 16,3 23,0 21,4 18,8 9 5 17 9 ONO 1017,6 14 0,0
24.05.2018 09:00:00 18,8 15,5 19,1 21,5 18,7 2 1 5 3 NO 1017,8 16 0,0
24.05.2018 08:00:00 16,8 14,4 15,1 21,7 18,7 4 2 7 4 WZW 1017,5 16 0,0
24.05.2018 07:00:00 15,1 13,6 12,1 21,9 18,7 5 3 9 5 WZW 1017,5 22 0,0
24.05.2018 06:00:00 14,7 13,2 12,7 22,1 18,7 3 2 10 5 W 1016,9 29 0,0
24.05.2018 05:00:00 15,0 13,0 12,9 22,3 18,6 7 4 11 6 WZW 1017,0 46 0,0
24.05.2018 04:00:00 16,0 13,1 13,7 22,5 18,7 3 1 10 6 WNW 1016,8 57 0,0
24.05.2018 03:00:00 17,3 15,6 13,8 22,7 18,7 8 4 13 7 ONO 1016,9 8 0,0
24.05.2018 02:00:00 17,3 14,8 13,8 22,9 18,7 8 4 12 7 ONO 1017,0 18 0,0
24.05.2018 01:00:00 18,4 12,6 14,5 23,1 18,7 5 3 10 5 NW 1017,3 60 0,0
24.05.2018 00:00:00 19,6 13,1 17,7 23,2 18,6 5 3 14 8 WNW 1017,5 60 0,0
23.05.2018 23:00:00 20,1 13,3 19,0 23,4 18,6 9 5 27 15 ZW 1017,8 60 0,0
23.05.2018 22:00:00 21,7 13,3 19,3 23,5 18,7 6 3 18 10 WZW 1017,4 32 0,0
23.05.2018 21:00:00 22,9 12,5 20,8 23,5 18,6 5 3 16 9 ZW 1016,7 60 0,0
23.05.2018 20:00:00 24,3 11,6 22,9 23,4 18,6 10 6 19 10 Z 1015,7 60 0,0
23.05.2018 19:00:00 25,4 14,5 27,6 23,2 18,6 7 4 19 10 ZZO 1015,4 20 0,0
23.05.2018 18:00:00 26,1 13,9 26,4 22,9 18,6 12 6 24 13 ZZW 1015,4 20 0,0
23.05.2018 17:00:00 25,7 14,2 30,4 22,4 18,6 13 7 32 17 OZO 1015,9 51 0,0
23.05.2018 16:00:00 25,0 13,5 33,0 21,9 18,6 19 10 31 17 ZO 1016,1 52 0,0
23.05.2018 15:00:00 25,4 13,6 32,1 21,4 18,6 18 10 28 15 ZO 1016,7 53 0,0
23.05.2018 14:00:00 24,9 16,1 33,7 20,9 18,6 15 8 25 14 OZO 1017,0 54 0,0
23.05.2018 13:00:00 25,2 15,2 32,1 20,5 18,6 16 9 26 14 OZO 1017,2 18 0,0
23.05.2018 12:00:00 25,1 14,2 33,3 20,2 18,6 7 4 14 8 ZZO 1017,1 59 0,0
23.05.2018 11:00:00 23,8 13,6 31,2 20,1 18,5 3 2 9 5 Z 1017,1 56 0,0
23.05.2018 10:00:00 22,3 13,6 28,1 20,1 18,5 5 3 13 7 ONO 1017,4 52 0,0
23.05.2018 09:00:00 20,4 12,9 17,1 20,2 18,6 3 2 12 7 NW 1017,1 54 0,0
23.05.2018 08:00:00 16,7 13,0 12,5 20,4 18,5 6 4 12 6 W 1016,9 58 0,0
23.05.2018 07:00:00 14,0 11,3 10,5 20,6 18,6 7 4 10 5 ZW 1016,7 51 0,0
23.05.2018 06:00:00 13,1 10,6 10,4 20,7 18,5 6 3 11 6 WZW 1016,3 53 0,0
23.05.2018 05:00:00 13,7 10,7 10,4 21,0 18,5 4 2 12 6 ZZW 1016,2 59 0,0
23.05.2018 04:00:00 14,2 11,2 11,1 21,2 18,5 4 2 10 6 W 1016,1 60 0,0
23.05.2018 03:00:00 15,4 11,8 11,5 21,4 18,5 6 3 10 6 WZW 1016,2 20 0,0
23.05.2018 02:00:00 15,5 12,3 11,9 21,6 18,5 6 4 10 5 W 1016,3 58 0,0
23.05.2018 01:00:00 15,8 13,3 12,5 21,8 18,4 7 4 9 5 WZW 1016,4 43 0,0
23.05.2018 00:00:00 17,7 14,6 14,1 22,0 18,4 5 3 13 7 N 1016,1 42 0,0
22.05.2018 23:00:00 17,8 13,5 14,6 22,2 18,5 6 4 15 8 W 1015,9 60 0,0
22.05.2018 22:00:00 18,4 15,1 15,4 22,3 18,4 8 5 10 6 W 1014,9 60 0,0
22.05.2018 21:00:00 20,5 13,9 17,3 22,3 18,4 9 5 18 10 ZW 1014,1 60 0,0
22.05.2018 20:00:00 22,6 13,4 20,5 22,3 18,4 12 6 17 9 ZZW 1013,8 60 0,0
22.05.2018 19:00:00 23,3 14,0 25,2 22,2 18,4 12 6 19 10 ZZW 1013,4 53 0,0
22.05.2018 18:00:00 22,8 15,1 24,0 22,0 18,3 14 8 27 14 Z 1013,2 54 0,0
22.05.2018 17:00:00 19,4 16,1 18,1 21,9 18,4 16 9 37 20 ZZW 1013,6 59 0,6
22.05.2018 16:00:00 21,3 14,0 19,2 21,6 18,3 16 9 25 13 Z 1013,4 16 0,4
22.05.2018 15:00:00 24,9 15,2 25,4 21,4 18,3 14 8 27 14 O 1013,4 20 0,0
22.05.2018 14:00:00 22,6 14,7 25,0 21,1 18,3 14 8 23 13 ZO 1013,3 44 0,0
22.05.2018 13:00:00 24,1 13,0 26,3 20,8 18,3 6 4 23 12 W 1013,3 20 0,0
22.05.2018 12:00:00 23,2 12,5 33,7 20,6 18,3 9 5 21 11 N 1013,4 58 0,0
22.05.2018 11:00:00 22,0 13,4 28,8 20,5 18,3 8 4 17 9 NW 1013,5 56 0,0
22.05.2018 10:00:00 20,6 14,3 26,3 20,6 18,3 4 2 13 7 ZZO 1013,7 20 0,0
22.05.2018 09:00:00 18,6 14,3 18,0 20,6 18,2 9 5 15 8 WZW 1013,7 37 0,0
22.05.2018 08:00:00 16,2 13,9 14,5 20,8 18,2 6 3 11 6 WZW 1013,5 42 0,2
22.05.2018 07:00:00 14,9 12,9 13,7 20,9 18,3 7 4 10 5 WZW 1013,2 33 0,0
22.05.2018 06:00:00 14,4 12,9 12,0 21,1 18,2 6 3 9 5 ZZW 1012,7 20 0,0
22.05.2018 05:00:00 14,3 12,8 11,8 21,4 18,2 4 2 10 5 W 1012,3 22 0,0
22.05.2018 04:00:00 14,7 13,4 12,9 21,5 18,2 6 3 13 7 WZW 1012,1 15 0,0
22.05.2018 03:00:00 15,2 13,9 12,6 21,7 18,2 9 5 11 6 W 1011,9 12 0,0
22.05.2018 02:00:00 16,1 14,6 13,6 21,9 18,2 7 4 12 6 NW 1012,0 17 0,0
22.05.2018 01:00:00 16,0 14,4 13,2 22,2 18,2 6 3 8 4 N 1012,4 13 0,0
22.05.2018 00:00:00 16,3 14,5 13,1 22,3 18,2 4 2 9 5 NNW 1012,6 14 0,0
21.05.2018 23:00:00 17,3 14,9 14,9 22,5 18,1 8 4 11 6 O 1012,5 17 0,0
21.05.2018 22:00:00 18,1 14,4 15,1 22,5 18,2 5 3 11 6 O 1012,0 27 0,0
21.05.2018 21:00:00 18,5 14,0 17,6 22,5 18,2 9 5 17 9 ZO 1011,6 32 0,0
21.05.2018 20:00:00 20,4 14,5 21,4 22,4 18,1 10 5 22 12 OZO 1011,2 40 0,0
21.05.2018 19:00:00 21,5 14,6 24,6 22,2 18,1 16 8 23 13 OZO 1010,9 56 0,0
21.05.2018 18:00:00 22,6 12,2 28,0 21,9 18,1 14 8 22 12 O 1010,8 60 0,0
21.05.2018 17:00:00 23,3 12,3 25,7 21,6 18,1 11 6 23 12 O 1011,0 55 0,0
21.05.2018 16:00:00 22,1 12,6 26,4 21,3 18,1 14 8 26 14 O 1011,4 60 0,0
21.05.2018 15:00:00 22,4 13,2 26,5 20,8 18,1 15 8 23 12 O 1012,0 39 0,0
21.05.2018 14:00:00 22,2 13,3 27,8 20,4 18,1 16 9 29 16 O 1012,2 35 0,0
21.05.2018 13:00:00 22,2 12,2 28,2 20,1 18,1 14 8 29 15 O 1012,6 27 0,0
21.05.2018 12:00:00 22,0 13,9 30,4 19,9 18,0 9 5 16 9 O 1012,9 27 0,0
21.05.2018 11:00:00 20,0 13,5 26,2 19,8 18,0 5 3 13 7 O 1013,1 26 0,0
21.05.2018 10:00:00 17,7 14,4 19,8 19,9 18,0 4 2 9 5 N 1013,4 17 0,0
21.05.2018 09:00:00 16,2 13,3 17,1 20,0 18,0 4 2 8 4 W 1013,4 31 0,0
21.05.2018 08:00:00 15,1 13,1 13,9 20,1 17,9 0 0 6 3 N 1013,5 33 0,0
21.05.2018 07:00:00 13,7 12,3 12,5 20,3 18,0 4 2 7 4 WZW 1013,4 32 0,0
21.05.2018 06:00:00 13,3 12,0 9,7 20,5 18,0 4 2 7 4 ZZW 1013,3 11 0,0
21.05.2018 05:00:00 13,4 11,6 10,9 20,8 18,0 2 1 11 6 NNW 1013,1 43 0,0
21.05.2018 04:00:00 14,1 12,1 11,6 20,9 17,9 8 4 11 6 NNW 1013,2 41 0,0
21.05.2018 03:00:00 13,4 11,5 10,3 21,2 17,9 7 4 10 5 N 1013,4 54 0,0
21.05.2018 02:00:00 13,8 11,7 10,4 21,4 18,0 3 2 5 3 WZW 1013,8 58 0,0
21.05.2018 01:00:00 15,0 12,1 11,7 21,7 17,9 4 2 12 6 WNW 1014,1 60 0,0
21.05.2018 00:00:00 15,1 12,4 11,8 21,8 17,9 6 3 9 5 ZW 1014,2 60 0,0
20.05.2018 23:00:00 15,6 12,5 12,4 22,0 17,9 7 4 10 5 WZW 1014,2 60 0,0

tt = temperatuur
td = dauwpunt
tt 5cm = temperatuur 5cm
tt -20cm = temperatuur -20cm
tt -100cm = temperatuur -100cm
ff = windsnelheid
fx = windstoten
dd = windrichting
ppp = luchtdruk
vv = zicht
rr = neerslag

Weerstations in de omgeving